Washington, PA

10:25 AM EDT on August 31, 2016 (GMT -0400)
Washington County

Weather History for KAFJ - January, 2014

Change the Weather History Date:

Friday, January 24, 2014

  Actual Average Record
Temperature  
Mean Temperature 8 °F -  
Max Temperature 17 °F 33 °F 55 °F (1999)
Min Temperature -2 °F 18 °F -11 °F (2011)
Degree Days  
Heating Degree Days 58    
Moisture  
Dew Point -3 °F    
Average Humidity 67    
Maximum Humidity 85    
Minimum Humidity 42    
Precipitation  
Precipitation 0.00 in - - ()
Sea Level Pressure  
Sea Level Pressure 30.28 in    
Wind  
Wind Speed 10 mph (SW)    
Max Wind Speed 20 mph    
Max Gust Speed 29 mph    
Visibility 9 miles    
Events      
Averages and records for this station are not official NWS values.
T = Trace of Precipitation, MM = Missing Value Source: NWS Daily Summary

Daily Weather History Graph

Daily Weather History Graph

Search for Another Location

Airport or City:

Trip Planner

Search our weather history database for the weather conditions in past years. The results will help you decide how hot, cold, wet, or windy it might be!

Date:

Astronomy

Jan. 24, 2014 Rise Set
Actual Time 7:36 AM EST 5:30 PM EST
Civil Twilight 7:07 AM EST 5:59 PM EST
Nautical Twilight 6:34 AM EST 6:32 PM EST
Astronomical Twilight 6:02 AM EST 7:04 PM EST
Moon 1:02 AM EST (1/24) 11:48 AM EST (1/24)
Length of Visible Light 10h 52m
Length of Day
9h 53m
Last Quarter, 45% of the Moon is Illuminated
Jan 24
Last Quarter
Jan 30
New
Feb 6
First Quarter
Feb 14
Full
Feb 22
Last Quarter

Hourly Weather History & Observations

Time (EST) Temp. Windchill Dew Point Humidity Pressure Visibility Wind Dir Wind Speed Gust Speed Precip Events Conditions
12:15 AM 1.4 °F -11.3 °F -2.2 °F 85% 30.45 in 4.0 mi WSW 6.9 mph - N/A   Overcast
12:35 AM 1.4 °F -9.9 °F -4.0 °F 78% 30.46 in 10.0 mi West 5.8 mph - N/A   Scattered Clouds
12:55 AM 1.4 °F -9.9 °F -2.2 °F 85% 30.46 in 10.0 mi SW 5.8 mph - N/A   Mostly Cloudy
1:15 AM 1.4 °F -12.5 °F -2.2 °F 85% 30.45 in 7.0 mi SW 8.1 mph - N/A   Overcast
1:35 AM 1.4 °F -12.5 °F -4.0 °F 78% 30.45 in 7.0 mi WSW 8.1 mph - N/A   Overcast
1:55 AM 1.4 °F -12.5 °F -2.2 °F 85% 30.45 in 9.0 mi WSW 8.1 mph - N/A   Overcast
2:15 AM 1.4 °F -9.9 °F -2.2 °F 85% 30.46 in 10.0 mi WSW 5.8 mph - N/A   Overcast
2:35 AM 1.4 °F -12.5 °F -2.2 °F 85% 30.46 in 10.0 mi WSW 8.1 mph - N/A   Overcast
2:55 AM 1.4 °F -13.5 °F -2.2 °F 85% 30.47 in 10.0 mi WSW 9.2 mph - N/A   Overcast
3:15 AM 1.4 °F -14.5 °F -4.0 °F 78% 30.47 in 10.0 mi WSW 10.4 mph - N/A   Overcast
3:35 AM 1.4 °F -13.5 °F -2.2 °F 85% 30.47 in 10.0 mi WSW 9.2 mph - N/A   Overcast
3:55 AM 1.4 °F -13.5 °F -2.2 °F 85% 30.48 in 10.0 mi WSW 9.2 mph - N/A   Overcast
4:15 AM 1.4 °F -14.5 °F -4.0 °F 78% 30.47 in 10.0 mi SW 10.4 mph - N/A   Overcast
4:35 AM 1.4 °F -13.5 °F -4.0 °F 78% 30.48 in 10.0 mi WSW 9.2 mph - N/A   Overcast
4:55 AM -0.4 °F -16.7 °F -4.0 °F 85% 30.48 in 7.0 mi WSW 10.4 mph - N/A   Overcast
5:15 AM -0.4 °F -15.7 °F -5.8 °F 78% 30.48 in 10.0 mi WSW 9.2 mph - N/A   Mostly Cloudy
5:35 AM -0.4 °F -14.7 °F -5.8 °F 78% 30.48 in 10.0 mi SW 8.1 mph - N/A   Clear
5:55 AM -0.4 °F -14.7 °F -5.8 °F 78% 30.48 in 10.0 mi SW 8.1 mph - N/A   Clear
6:15 AM -0.4 °F -14.7 °F -5.8 °F 78% 30.48 in 10.0 mi SW 8.1 mph - N/A   Clear
6:35 AM -2.2 °F -16.8 °F -5.8 °F 85% 30.48 in 10.0 mi SW 8.1 mph - N/A   Clear
6:55 AM -2.2 °F -14.2 °F -5.8 °F 85% 30.48 in 10.0 mi SW 5.8 mph - N/A   Clear
7:15 AM -2.2 °F -15.6 °F -5.8 °F 85% 30.48 in 10.0 mi SW 6.9 mph - N/A   Clear
7:35 AM -2.2 °F -16.8 °F -5.8 °F 85% 30.47 in 10.0 mi SW 8.1 mph - N/A   Clear
7:55 AM -2.2 °F -16.8 °F -7.6 °F 78% 30.47 in 10.0 mi SSW 8.1 mph - N/A   Partly Cloudy
8:15 AM -2.2 °F -15.6 °F -5.8 °F 85% 30.47 in 4.0 mi SW 6.9 mph - N/A   Overcast
8:35 AM -0.4 °F -15.7 °F -5.8 °F 78% 30.47 in 3.0 mi SW 9.2 mph - N/A   Overcast
8:55 AM -0.4 °F -15.7 °F -5.8 °F 78% 30.46 in 2.5 mi SSW 9.2 mph 16.1 mph N/A   Overcast
9:15 AM -0.4 °F -18.4 °F -4.0 °F 85% 30.46 in 1.8 mi SSW 12.7 mph 16.1 mph N/A   Overcast
9:35 AM -0.4 °F -14.7 °F -5.8 °F 78% 30.45 in 2.0 mi SSW 8.1 mph 18.4 mph N/A   Overcast
9:55 AM 1.4 °F -14.5 °F -4.0 °F 78% 30.45 in 2.5 mi SSW 10.4 mph 16.1 mph N/A   Overcast
10:15 AM 1.4 °F -13.5 °F -4.0 °F 78% 30.44 in 4.0 mi SW 9.2 mph - N/A   Overcast
10:35 AM 3.2 °F -15.9 °F -2.2 °F 78% 30.44 in 5.0 mi SW 16.1 mph 20.7 mph N/A   Overcast
10:55 AM 5.0 °F -10.8 °F -0.4 °F 78% 30.44 in 5.0 mi SSW 11.5 mph 18.4 mph N/A   Overcast
11:15 AM 3.2 °F -14.6 °F -4.0 °F 72% 30.43 in 7.0 mi SW 13.8 mph 19.6 mph N/A   Overcast
11:35 AM 5.0 °F -14.2 °F -2.2 °F 72% 30.41 in 9.0 mi SW 17.3 mph 21.9 mph N/A   Overcast
11:55 AM 6.8 °F -7.8 °F -0.4 °F 72% 30.39 in 10.0 mi SSW 10.4 mph - N/A   Overcast
12:15 PM 6.8 °F -7.8 °F -2.2 °F 67% 30.37 in 10.0 mi SSW 10.4 mph 20.7 mph N/A   Scattered Clouds
12:35 PM 8.6 °F -7.7 °F -0.4 °F 67% 30.35 in 10.0 mi SSW 13.8 mph 19.6 mph N/A   Clear
12:55 PM 8.6 °F -4.7 °F -2.2 °F 62% 30.33 in 10.0 mi South 9.2 mph 17.3 mph N/A   Clear
1:15 PM 8.6 °F -5.5 °F 1.4 °F 73% 30.32 in 10.0 mi South 10.4 mph 18.4 mph N/A   Clear
1:35 PM 10.4 °F -5.4 °F -0.4 °F 62% 30.31 in 10.0 mi SW 13.8 mph 21.9 mph N/A   Clear
1:55 PM 10.4 °F -4.8 °F -0.4 °F 62% 30.30 in 10.0 mi South 12.7 mph 20.7 mph N/A   Clear
2:15 PM 10.4 °F -4.8 °F -0.4 °F 62% 30.28 in 10.0 mi SSW 12.7 mph 21.9 mph N/A   Clear
2:35 PM 12.2 °F -3.1 °F -0.4 °F 57% 30.27 in 10.0 mi SW 13.8 mph 24.2 mph N/A   Clear
2:55 PM 12.2 °F -1.0 °F -0.4 °F 57% 30.24 in 10.0 mi SSW 10.4 mph 20.7 mph N/A   Partly Cloudy
3:15 PM 12.2 °F -0.2 °F -0.4 °F 57% 30.22 in 10.0 mi SSW 9.2 mph 20.7 mph N/A   Clear
3:35 PM 12.2 °F -1.8 °F -2.2 °F 53% 30.21 in 10.0 mi SSW 11.5 mph 23.0 mph N/A   Clear
3:55 PM 12.2 °F -4.3 °F -2.2 °F 53% 30.19 in 10.0 mi SSW 16.1 mph 25.3 mph N/A   Partly Cloudy
4:15 PM 12.2 °F -3.7 °F -2.2 °F 53% 30.19 in 10.0 mi SW 15.0 mph 20.7 mph N/A   Scattered Clouds
4:35 PM 12.2 °F -1.8 °F -2.2 °F 53% 30.18 in 10.0 mi SW 11.5 mph 24.2 mph N/A   Mostly Cloudy
4:55 PM 12.2 °F -2.5 °F -2.2 °F 53% 30.15 in 10.0 mi SSW 12.7 mph 17.3 mph N/A   Scattered Clouds
5:15 PM 12.2 °F -1.8 °F -2.2 °F 53% 30.14 in 10.0 mi SSW 11.5 mph 19.6 mph N/A   Clear
5:35 PM 12.2 °F -1.0 °F -2.2 °F 53% 30.13 in 10.0 mi SSW 10.4 mph - N/A   Clear
5:55 PM 12.2 °F -0.2 °F -2.2 °F 53% 30.12 in 10.0 mi SSW 9.2 mph - N/A   Clear
6:15 PM 12.2 °F -0.2 °F -2.2 °F 53% 30.10 in 10.0 mi SSW 9.2 mph - N/A   Clear
6:35 PM 12.2 °F -1.0 °F -2.2 °F 53% 30.09 in 10.0 mi SSW 10.4 mph - N/A   Partly Cloudy
6:55 PM 12.2 °F -2.5 °F -2.2 °F 53% 30.06 in 10.0 mi South 12.7 mph 18.4 mph N/A   Partly Cloudy
7:15 PM 12.2 °F -0.2 °F -2.2 °F 53% 30.05 in 10.0 mi SSW 9.2 mph 16.1 mph N/A   Clear
7:35 PM 12.2 °F -3.1 °F -4.0 °F 48% 30.03 in 10.0 mi SSW 13.8 mph 20.7 mph N/A   Clear
7:55 PM 12.2 °F -1.0 °F -2.2 °F 53% 30.02 in 10.0 mi SSW 10.4 mph 20.7 mph N/A   Clear
8:15 PM 12.2 °F -3.1 °F -4.0 °F 48% 30.01 in 10.0 mi SSW 13.8 mph 19.6 mph N/A   Clear
8:35 PM 14.0 °F -0.2 °F -2.2 °F 49% 29.99 in 10.0 mi SSW 12.7 mph 19.6 mph N/A   Clear
8:55 PM 14.0 °F 1.2 °F -2.2 °F 49% 29.97 in 10.0 mi SW 10.4 mph 21.9 mph N/A   Clear
9:15 PM 15.8 °F 2.7 °F -2.2 °F 45% 29.95 in 10.0 mi SSW 11.5 mph 24.2 mph N/A   Clear
9:35 PM 15.8 °F 0.9 °F -2.2 °F 45% 29.93 in 10.0 mi SSW 15.0 mph 23.0 mph N/A   Clear
9:55 PM 15.8 °F 1.4 °F -0.4 °F 49% 29.91 in 10.0 mi SSW 13.8 mph 20.7 mph N/A   Clear
10:15 PM 17.6 °F 3.7 °F -2.2 °F 42% 29.89 in 10.0 mi SSW 13.8 mph 26.5 mph N/A   Clear
10:35 PM 17.6 °F 1.3 °F -0.4 °F 45% 29.88 in 10.0 mi SW 19.6 mph 28.8 mph N/A   Clear
10:55 PM 17.6 °F 2.7 °F -0.4 °F 45% 29.88 in 10.0 mi SW 16.1 mph 24.2 mph N/A   Clear
11:15 PM 17.6 °F 3.2 °F -0.4 °F 45% 29.88 in 10.0 mi SW 15.0 mph 21.9 mph N/A   Clear
11:35 PM 17.6 °F 5.0 °F -0.4 °F 45% 29.87 in 10.0 mi SSW 11.5 mph 20.7 mph N/A   Partly Cloudy
11:55 PM 17.6 °F 3.2 °F -0.4 °F 45% 29.85 in 10.0 mi SW 15.0 mph 23.0 mph N/A   Clear